Estherville, IA

3:07 AM CST on February 21, 2017 (GMT -0600)
Estherville Municipal

Weather History for KEST - April, 2012

Change the Weather History Date:

Friday, April 20, 2012

  Actual Average Record
Temperature  
Mean Temperature 45 °F 49 °F  
Max Temperature 56 °F 61 °F 88 °F (1987)
Min Temperature 33 °F 37 °F 21 °F (2013)
Degree Days  
Heating Degree Days 20 16  
Month to date heating degree days 312 406  
Since 1 July heating degree days 5925 7321  
Cooling Degree Days 0 0  
Month to date cooling degree days 3 0  
Year to date cooling degree days 13 0  
Moisture  
Dew Point 33 °F    
Average Humidity 68    
Maximum Humidity 92    
Minimum Humidity 43    
Precipitation  
Precipitation 0.00 in 0.13 in 2.10 in (1993)
Month to date precipitation 2.74 2.01  
Year to date precipitation 5.78  
Sea Level Pressure  
Sea Level Pressure 30.07 in    
Wind  
Wind Speed 9 mph (North)    
Max Wind Speed 18 mph    
Max Gust Speed 32 mph    
Visibility 10 miles    
Events      
T = Trace of Precipitation, MM = Missing Value Source: NWS Daily Summary

Daily Weather History Graph

Daily Weather History Graph

Search for Another Location

Airport or City:

Trip Planner

Search our weather history database for the weather conditions in past years. The results will help you decide how hot, cold, wet, or windy it might be!

Date:

Astronomy

Apr. 20, 2012 Rise Set
Actual Time 6:27 AM CDT 8:08 PM CDT
Civil Twilight 5:57 AM CDT 8:38 PM CDT
Nautical Twilight 5:20 AM CDT 9:15 PM CDT
Astronomical Twilight 4:41 AM CDT 9:55 PM CDT
Moon 5:51 AM CDT (4/20) 7:55 PM CDT (4/20)
Length of Visible Light 14h 41m
Length of Day
13h 41m
Waning Crescent, 0% of the Moon is Illuminated
Apr 20
Waning Crescent
Apr 21
New
Apr 29
First Quarter
May 5
Full
May 12
Last Quarter

Hourly Weather History & Observations

Time (CDT) Temp. Windchill Dew Point Humidity Pressure Visibility Wind Dir Wind Speed Gust Speed Precip Events Conditions
12:52 AM 39.0 °F 32.3 °F 37.0 °F 93% 29.99 in 9.0 mi North 10.4 mph - N/A   Overcast
1:52 AM 37.0 °F 31.0 °F 35.1 °F 93% 30.00 in 8.0 mi North 8.1 mph - N/A   Clear
2:52 AM 36.0 °F 29.0 °F 34.0 °F 93% 29.99 in 8.0 mi NNW 9.2 mph - N/A   Clear
3:52 AM 34.0 °F 26.6 °F 30.0 °F 85% 30.01 in 10.0 mi NNW 9.2 mph - N/A   Clear
4:52 AM 34.0 °F 26.0 °F 28.9 °F 82% 30.04 in 10.0 mi NNW 10.4 mph - N/A   Clear
5:52 AM 33.1 °F 26.1 °F 28.0 °F 82% 30.06 in 10.0 mi NNW 8.1 mph - N/A   Clear
6:52 AM 33.1 °F 24.9 °F 28.0 °F 82% 30.06 in 10.0 mi North 10.4 mph - N/A   Clear
7:52 AM 36.0 °F 28.0 °F 28.9 °F 76% 30.08 in 10.0 mi NNW 11.5 mph - N/A   Clear
8:52 AM 37.9 °F 30.5 °F 30.0 °F 73% 30.10 in 10.0 mi North 11.5 mph - N/A   Clear
9:52 AM 43.0 °F 36.8 °F 30.0 °F 60% 30.11 in 10.0 mi NNE 11.5 mph 23.0 mph N/A   Clear
10:52 AM 46.9 °F - 30.9 °F 54% 30.12 in 10.0 mi North 13.8 mph - N/A   Clear
11:52 AM 48.0 °F - 28.9 °F 48% 30.13 in 10.0 mi North 15.0 mph 21.9 mph N/A   Clear
12:52 PM 51.1 °F - 32.0 °F 48% 30.11 in 10.0 mi NNE 15.0 mph 24.2 mph N/A   Partly Cloudy
1:52 PM 51.1 °F - 30.9 °F 46% 30.11 in 10.0 mi North 10.4 mph 21.9 mph N/A   Partly Cloudy
2:52 PM 54.0 °F - 33.1 °F 45% 30.11 in 10.0 mi North 10.4 mph 19.6 mph N/A   Scattered Clouds
3:52 PM 53.1 °F - 33.1 °F 47% 30.10 in 10.0 mi North 15.0 mph - N/A   Mostly Cloudy
4:52 PM 55.9 °F - 35.1 °F 45% 30.08 in 10.0 mi North 8.1 mph - N/A   Overcast
5:52 PM 55.0 °F - 34.0 °F 45% 30.08 in 10.0 mi North 5.8 mph - N/A   Mostly Cloudy
6:52 PM 53.1 °F - 34.0 °F 48% 30.07 in 10.0 mi North 4.6 mph - N/A   Partly Cloudy
7:52 PM 50.0 °F - 36.0 °F 59% 30.07 in 10.0 mi East 5.8 mph - N/A   Scattered Clouds
8:52 PM 45.0 °F 42.6 °F 36.0 °F 71% 30.08 in 10.0 mi SE 4.6 mph - N/A   Clear
9:52 PM 43.0 °F 40.3 °F 36.0 °F 76% 30.07 in 10.0 mi South 4.6 mph - N/A   Clear
10:52 PM 42.1 °F 37.7 °F 36.0 °F 79% 30.06 in 10.0 mi South 6.9 mph - N/A   Clear
11:52 PM 39.9 °F 35.1 °F 36.0 °F 86% 30.06 in 10.0 mi SSW 6.9 mph - N/A   Clear